Hourly Data Report for October 29, 2016

All times are specified in Local Standard Time (LST). Add 1 hour to adjust for Daylight Saving Time where and when it is observed.

KUGLUKTUK A
NUNAVUT

67°49'00.000" N
115°08'38.000" W
22.60 m
2300903
71938
YCO

Download Data

Hourly Data (October 2016)
Hourly Data Report for October 29, 2016
Temp Definition
°C
Dew Point Temp Definition
°C
Rel Hum Definition
%
Wind Dir Definition
10's deg

Wind Spd Definition
km/h
Visibility Definition
km
Stn Press Definition
kPa
Hmdx Definition


Wind Chill Definition


Weather Definition


TIME
00:00 Legend Double Dagger -5.8 -9.9 73 9 27 9.7 101.70   -14 Snow Grains,Blowing Snow
01:00 Legend Double Dagger -7.3 -9.6 84 12 20 4.8 101.81   -14 Snow Grains,Blowing Snow
02:00 Legend Double Dagger -7.9 -9.7 87 12 21 1.6 101.90   -15 Snow
03:00 Legend Double Dagger -8.2 -10.3 85 12 14 3.6 101.99   -14 Snow
04:00 Legend Double Dagger -8.5 -11.0 82 13 13 8.1 102.06   -14 Snow
05:00 Legend Double Dagger -8.9 -11.9 79 12 6 6.4 102.13   -12 Snow
06:00 Legend Double Dagger -9.0 -12.3 77 14 7 8.1 102.18   -13 Snow
07:00 Legend Double Dagger -9.4 -12.7 77 12 9 24.1 102.20   -14 Snow
08:00 Legend Double Dagger -10.7 -13.8 78 12 6 24.1 102.23   -14 Mostly Cloudy
09:00 Legend Double Dagger -12.8 -15.4 81 18 11 24.1 102.30   -19 LegendNANA
10:00 Legend Double Dagger -14.6 -17.0 82 30 3 24.1 102.34   -17 LegendNANA
11:00 Legend Double Dagger -14.6 -17.0 82 25 9 24.1 102.33   -20 Mostly Cloudy
12:00 Legend Double Dagger -14.8 -17.8 78 27 5 24.1 102.37   -18 LegendNANA
13:00 Legend Double Dagger -13.7 -17.4 74 23 9 24.1 102.38   -19 LegendNANA
14:00 Legend Double Dagger -14.2 -17.7 75 24 9 24.1 102.40   -20 Mostly Cloudy
15:00 Legend Double Dagger -15.4 -18.7 76 22 15 24.1 102.39   -23 LegendNANA
16:00 Legend Double Dagger -15.7 -19.5 73 21 16 24.1 102.40   -24 LegendNANA
17:00 Legend Double Dagger -16.0 -20.1 71 21 14 24.1 102.38   -24 Cloudy
18:00 Legend Double Dagger -15.4 -18.6 77 18 13 19.3 102.37   -23 Ice Crystals
19:00 Legend Double Dagger -14.2 -18.0 73 18 10 24.1 102.37   -20 Ice Crystals
20:00 Legend Double Dagger -16.1 -19.9 73 20 13 24.1 102.33   -24 Ice Crystals
21:00 Legend Double Dagger -16.0 -20.0 72 15 11 24.1 102.30   -23 Ice Crystals
22:00 Legend Double Dagger -15.2 -19.5 70 18 9 24.1 102.27   -21 Ice Crystals
23:00 Legend Double Dagger -15.0 -19.2 71 17 7 24.1 102.24   -20 Ice Crystals

Notes on Data Quality.

Legend

  • E = Estimated
  • M = Missing
  • NA = Not Available
  • ‡ = Partner data that is not subject to review by the National Climate Archives
Date modified: